This is the latest recevied weather packets stored in our database for station/object OE6ACM-10. If no packets are shown the sender has not sent any weather packets the latest 10 day(s).
| Time | Temp. | Humidity | Pressure | Rain* | Wind** | Luminosity | Snow |
|---|---|---|---|---|---|---|---|
| 1788194516 | 25.56° C | 100% | 927.2 hPa | - | - | - | - |
| 1788194216 | 25.56° C | 100% | 927.3 hPa | - | - | - | - |
| 1788193916 | 26.11° C | 100% | 927.1 hPa | - | - | - | - |
| 1788193616 | 26.67° C | 100% | 927.3 hPa | - | - | - | - |
| 1788193316 | 26.67° C | 100% | 927.3 hPa | - | - | - | - |
| 1788193016 | 27.22° C | 100% | 927.2 hPa | - | - | - | - |
| 1788192716 | 27.78° C | 100% | 927.3 hPa | - | - | - | - |
| 1788192416 | 27.78° C | 100% | 927.4 hPa | - | - | - | - |
| 1788192116 | 27.78° C | 100% | 927.3 hPa | - | - | - | - |
| 1788191816 | 28.33° C | 100% | 927.4 hPa | - | - | - | - |
| 1788191516 | 28.33° C | 100% | 927.2 hPa | - | - | - | - |
| 1788191216 | 28.89° C | 100% | 927.1 hPa | - | - | - | - |
| 1788190916 | 28.89° C | 100% | 927.2 hPa | - | - | - | - |
| 1788190616 | 28.89° C | 100% | 927.3 hPa | - | - | - | - |
| 1788190316 | 28.89° C | 100% | 927.3 hPa | - | - | - | - |
| 1788190016 | 28.89° C | 100% | 927.3 hPa | - | - | - | - |
| 1788189716 | 28.89° C | 100% | 927.2 hPa | - | - | - | - |
| 1788189416 | 29.44° C | 100% | 927.1 hPa | - | - | - | - |
| 1788189116 | 30° C | 100% | 927 hPa | - | - | - | - |
| 1788188816 | 29.44° C | 100% | 927 hPa | - | - | - | - |
| 1788188516 | 30° C | 100% | 927.1 hPa | - | - | - | - |
| 1788188216 | 30° C | 100% | 927.1 hPa | - | - | - | - |
| 1788187916 | 30.56° C | 100% | 927.1 hPa | - | - | - | - |
| 1788187616 | 30.56° C | 100% | 927.2 hPa | - | - | - | - |
| 1788187316 | 30.56° C | 100% | 927.2 hPa | - | - | - | - |
* Rain since midnight (hover to see other rain measurements)
** Current wind speed in m/s (hover to see current wind gust speed)